Location: ????????
(48.4751°N, 37.6926°E)
Time: 20:02:30
(UTC+00:00)

Cosmos 990 Rocket - Pass Details

Date: 20 January 2021
Orbit: 748 x 768 km, 74.0° (Epoch: 02 March)

Event Time Altitude Azimuth Distance (km) Brightness Sun altitude
Rises 16:09:11 0° 179° (S) 3,213 7.3 -19.5°
Reaches altitude 10° 16:11:39 10° 172° (S) 2,289 6.5 -19.9°
Enters shadow 16:16:09 40° 113° (ESE) 1,121 4.4 -20.6°
